Retour au catalogue

STARLINK-31019

ActifCommunicationsVLEO
NORAD 58540·PAYLOAD·🇺🇸 United States

Lancé Dec 8, 2023 depuis Vandenberg Space Force Base

Loading…

Prochains Passages (prochaines 24 heures)

TLE

FraisSource: CelesTrak SupGP

Époque: Sep 14, 2026, 21:01 UTC

1 58540C 23192K   26257.87618056  .00051711  00000+0  15282-2 0  2573
2 58540  53.1583 260.1413 0001250  91.7008 314.6619 15.34356629    14

Suivez STARLINK-31019 en temps réel avec AllMySat

Download on the App Store